Cut Bank, MT

3:57 AM MDT on September 21, 2017 (GMT -0600)
Cut Bank Municipal

Weather History for KCTB - August, 2013

Change the Weather History Date:

Monday, August 26, 2013

  Actual Average Record
Temperature  
Mean Temperature 71 °F 61 °F  
Max Temperature 86 °F 76 °F 95 °F (2010)
Min Temperature 55 °F 46 °F 31 °F (1910)
Degree Days  
Heating Degree Days 0 5  
Month to date heating degree days 27 79  
Since 1 June heating degree days 277 398  
Since 1 July heating degree days 68 165  
Cooling Degree Days 6 1  
Month to date cooling degree days 82 60  
Year to date cooling degree days 181 149  
Since 1 June cooling degree days 179 147  
Growing Degree Days 22 (Base 50)    
Moisture  
Dew Point 43 °F    
Average Humidity 48    
Maximum Humidity 80    
Minimum Humidity 15    
Precipitation  
Precipitation T in 0.04 in 0.68 in (1954)
Month to date precipitation 1.28 0.99  
Year to date precipitation 10.78 8.46  
Snow  
Snow 0.00 in - - ()
Snow Depth 0.00 in    
Sea Level Pressure  
Sea Level Pressure 29.87 in    
Wind  
Wind Speed 13 mph (WSW)    
Max Wind Speed 26 mph    
Max Gust Speed 33 mph    
Visibility 10 miles    
Events Rain    
T = Trace of Precipitation, MM = Missing Value Source: NWS Daily Summary

Daily Weather History Graph

Daily Weather History Graph

Search for Another Location

Airport or City:

Trip Planner

Search our weather history database for the weather conditions in past years. The results will help you decide how hot, cold, wet, or windy it might be!

Date:

Astronomy

Aug. 26, 2013 Rise Set
Actual Time 6:38 AM MDT 8:22 PM MDT
Civil Twilight 6:05 AM MDT 8:55 PM MDT
Nautical Twilight 5:24 AM MDT 9:36 PM MDT
Astronomical Twilight 4:39 AM MDT 10:20 PM MDT
Moon 11:00 PM MDT (8/26) 1:18 PM MDT (8/26)
Length of Visible Light 14h 50m
Length of Day
13h 44m
Waning Gibbous, 66% of the Moon is Illuminated
Aug 26
Waning Gibbous
Aug 28
Last Quarter
Sep 5
New
Sep 12
First Quarter
Sep 19
Full

Hourly Weather History & Observations

Time (MDT) Temp. Dew Point Humidity Pressure Visibility Wind Dir Wind Speed Gust Speed Precip Events Conditions
12:56 AM 63.0 °F 50.0 °F 63% 29.89 in 10.0 mi East 5.8 mph - N/A   Clear
1:56 AM 61.0 °F 51.1 °F 70% 29.85 in 10.0 mi ESE 4.6 mph - N/A   Clear
2:56 AM 57.9 °F 51.1 °F 78% 29.86 in 10.0 mi WSW 5.8 mph - N/A   Clear
3:56 AM 57.9 °F 48.9 °F 72% 29.86 in 10.0 mi SW 6.9 mph - N/A   Partly Cloudy
4:56 AM 63.0 °F 48.9 °F 60% 29.85 in 10.0 mi SSE 8.1 mph - 0.00 in Rain Light Rain
5:56 AM 62.1 °F 48.0 °F 60% 29.89 in 10.0 mi West 15.0 mph - 0.00 in   Clear
6:56 AM 60.1 °F 46.9 °F 62% 29.91 in 10.0 mi West 8.1 mph - N/A   Clear
7:56 AM 62.1 °F 46.9 °F 58% 29.93 in 10.0 mi NW 8.1 mph - N/A   Clear
8:56 AM 64.9 °F 46.0 °F 50% 29.94 in 10.0 mi WNW 9.2 mph - N/A   Clear
9:56 AM 70.0 °F 45.0 °F 41% 29.93 in 10.0 mi West 3.5 mph - N/A   Clear
10:56 AM 73.9 °F 44.1 °F 34% 29.92 in 10.0 mi South 9.2 mph - N/A   Clear
11:56 AM 79.0 °F 42.1 °F 27% 29.91 in 10.0 mi South 13.8 mph 19.6 mph N/A   Clear
12:56 PM 81.0 °F 43.0 °F 26% 29.88 in 10.0 mi SSW 10.4 mph 19.6 mph N/A   Clear
1:56 PM 80.1 °F 44.1 °F 28% 29.88 in 10.0 mi South 9.2 mph - N/A   Scattered Clouds
2:56 PM 84.9 °F 37.0 °F 18% 29.85 in 10.0 mi WSW 16.1 mph 24.2 mph N/A   Partly Cloudy
3:56 PM 86.0 °F 33.1 °F 15% 29.83 in 10.0 mi WSW 17.3 mph 29.9 mph N/A   Clear
4:56 PM 84.0 °F 34.0 °F 17% 29.82 in 10.0 mi West 25.3 mph 33.4 mph N/A   Clear
5:56 PM 81.0 °F 36.0 °F 20% 29.83 in 10.0 mi West 20.7 mph 28.8 mph N/A   Clear
6:56 PM 79.0 °F 36.0 °F 21% 29.83 in 10.0 mi West 23.0 mph - N/A   Clear
7:56 PM 75.0 °F 37.0 °F 25% 29.85 in 10.0 mi West 15.0 mph 23.0 mph N/A   Clear
8:56 PM 73.9 °F 37.0 °F 26% 29.86 in 10.0 mi West 20.7 mph 26.5 mph N/A   Mostly Cloudy
9:56 PM 71.1 °F 37.9 °F 30% 29.86 in 10.0 mi West 17.3 mph - N/A   Partly Cloudy
10:56 PM 72.0 °F 39.0 °F 30% 29.86 in 10.0 mi West 18.4 mph - N/A   Mostly Cloudy
11:56 PM 66.0 °F 41.0 °F 40% 29.89 in 10.0 mi WSW 10.4 mph - N/A   Partly Cloudy